Other Public Products
Issued by NWS Grand Forks, ND

Home | Current Version | Previous Version | Text Only | Print | Product List | Glossary On
Versions: 1 2 3 4 5 6 7 8 9 10 11 12 13 14 15 16 17 18 19 20 21 22 23 24 25 26 27 28 29 30 31 32 33 34 35 36 37 38 39 40 41 42 43 44 45 46 47 48 49 50
000
FPUS83 KFGF 021110
OPUFGF
PRAIRIE TO PINES WEATHER ROUNDUP
NATIONAL WEATHER SERVICE EASTERN NORTH DAKOTA/GRAND FORKS ND
600 AM CDT WED SEP 02 2015

 **SATELLITE DATA USED TO AUGMENT SKY COVER AT AUTOMATED STATIONS**
 *****  WEATHER ACROSS EASTERN NORTH DAKOTA  *****

CITY           SKY/WX    TMP DP  RH WIND       PRES   REMARKS
GRAND FORKS    CLOUDY    65  63  93 S6        29.82S
GRAND FORKS AF FOG       64  64 100 S7        29.82S VSB 1/2
GRAND CITY NWS   N/A     64 N/A N/A S5          N/A
BUXTON         NOT AVBL
DEVILS LAKE    CLEAR     68  61  77 SE7       29.79S
FARGO          CLEAR     69  66  90 SE9       29.83F
WAHPETON ARPT  SUNNY     63  61  94 SE8       29.85S
$$

 *****  WEATHER ACROSS CENTRAL AND WESTERN NORTH DAKOTA  *****

CITY           SKY/WX    TMP DP  RH WIND       PRES   REMARKS
JAMESTOWN      CLEAR     64  61  90 SE6       29.82R
BISMARCK       CLEAR     62  61  96 E5        29.80R
MINOT          CLEAR     62  59  90 SE5       29.77S
MINOT AFB      NOT AVBL
GARRISON         N/A     58  56  93 E3        29.78F
WILLISTON      CLEAR     57  45  64 N6        29.77S
DICKINSON      CLEAR     59  52  77 S8        29.79F
HETTINGER      PTCLDY    50  47  89 SW6       29.82F
$$

 *****  OTHER OBSERVATIONS NORTHEAST NORTH DAKOTA  *****

CITY           SKY/WX    TMP DP  RH WIND       PRES   REMARKS
WALHALLA       NOT AVBL
LANGDON        FAIR      66  64  94 S8        29.82S
CAVALIER       NOT AVBL
GRAFTON        FAIR      61  61 100 S5        29.82S
CANDO          NOT AVBL
FORT TOTTEN    NOT AVBL
ROLLA          NOT AVBL
RUGBY          NOT AVBL
 ***** THE ABOVE OBSERVATIONS ARE NON NWS ARE NOT QUALITY
        CONTROLLED AND MAY MIS-REPORT RAIN FOR SNOW...
$$

 *****  OTHER OBSERVATIONS SOUTHEAST NORTH DAKOTA *****

CITY           SKY/WX    TMP DP  RH WIND       PRES   REMARKS
COOPERSTOWN    NOT AVBL
VALLEY CITY    FAIR      64  64 100 SE6       29.83S
OAKES          NOT AVBL
GWINNER          N/A     63  63 100 CALM      29.82F
SHEYENNE NWR     N/A     63  62  97 E6        29.95S
BUFFALO        NOT AVBL
WYNDMERE         N/A     64  63  94 SE5         N/A
 ***** THE ABOVE OBSERVATIONS ARE NON NWS ARE NOT QUALITY
       CONTROLLED AND MAY MIS-REPORT RAIN FOR SNOW...
$$

  *****  WEATHER ACROSS NORTHERN MINNESOTA  *****

CITY           SKY/WX    TMP DP  RH WIND       PRES   REMARKS
FLAG ISLAND    CLEAR     66  59  77 SE7       29.87S
WARROAD        CLEAR     61  57  88 CALM      29.88S
ROSEAU         CLEAR     63  57  82 S5        29.86S
HALLOCK        CLEAR     66  64  94 S10       29.82R
THF RVR FALLS  CLEAR     61  59  94 SE7       29.86S
HALSTAD        NOT AVBL
FOSSTON        CLEAR     66  64  94 S7        29.88S FOG
BAUDETTE       CLEAR     59  54  83 E6        29.88F
WASKISH        CLEAR     61  57  88 CALM      29.89S
CROOKSTON      CLEAR     68  66  94 S8        29.85R
$$
  *****  WEATHER ACROSS CENTRAL AND WEST MINNESOTA  *****

CITY           SKY/WX    TMP DP  RH WIND       PRES   REMARKS
BEMIDJI        MOCLDY    64  63  98 CALM      29.90S
PARK RAPIDS    FOG       67  65  93 CALM      29.91R VSB 1/4
WADENA         FOG       63  61  94 CALM      29.89S VSB<1/4
DETROIT LAKES  CLEAR     68  66  94 SE6       29.90S FOG
MOORHEAD       CLEAR     66  66 100 SE6       29.85S
FERGUS FALLS   CLEAR     64  64 100 SE5       29.87R
ELBOW LAKE     FAIR      64  62  93 S7        29.87R
MORRIS MN      PTCLDY    63  63 100 SE6       29.86S
STAPLES        MOCLDY    66  66 100 SE3       29.90S FOG
WHEATON        CLEAR     57  57 100 E8        29.86F FOG
$$
  *****  WEATHER ELSEWHERE ACROSS MINNESOTA  *****

CITY           SKY/WX    TMP DP  RH WIND       PRES   REMARKS
DULUTH         LGT RAIN  68  65  90 E5        29.95R FOG
INTRNTL FALLS  CLEAR     55  53  93 SE3       29.92S
ELY            PTCLDY    54  52  94 CALM      29.98R
CLOQUET        CLOUDY    70  66  88 E5        29.95R FOG
BRAINERD       MOCLDY    72  70  93 S8        29.91S FOG
HIBBING        MOCLDY    64  60  87 CALM      29.94S
ALEXANDRIA     PTCLDY    66  64  93 SE8       29.90S
SAINT CLOUD    CLOUDY    68  67  96 E6        29.89F
MINNEAPOLIS    CLOUDY    70  67  90 NE5       29.91F FOG
$$

  *****  WEATHER ACROSS SOUTH DAKOTA  *****

CITY           SKY/WX    TMP DP  RH WIND       PRES   REMARKS
SIOUX FALLS    CLEAR     68  65  90 E7        29.86R
BROOKINGS      CLEAR     64  61  88 SE9       29.87S
WATERTOWN      CLEAR     65  62  90 SE6       29.84F
HURON          CLEAR     68  66  93 SE9       29.78F
SISSETON         N/A     63  61  93 S7        29.83S
ABERDEEN       CLEAR     64  62  93 E3        29.79F
MITCHELL       CLEAR     68  66  93 SE7       29.80F
PIERRE         FOG       58  58 100 CALM      29.76F VSB 1/4
MOBRIDGE       CLEAR     65  65 100 E6        29.77S FOG
RAPID CITY     PTCLDY    60  47  61 NW5       29.85S
$$

  *****  SOME WEATHER IN NEARBY STATES *****

CITY           SKY/WX    TMP DP  RH WIND       PRES   REMARKS
GLASGOW MT     CLEAR     61  39  44 E14       29.70F
GREAT FALLS MT PTCLDY    51  33  50 SW9       29.72F
CHEYENNE WY    PTCLDY    65  40  39 W12       30.11S
SCOTTSBLUFF NE PTCLDY    56  50  80 N5        29.97S
OMAHA NE       PTCLDY    74  69  85 S9        29.90S
DES MOINES IA  TSTM      72  67  84 SW9       29.99R
DAVENPORT IA   CLEAR     70  67  90 S5        30.03R
CHICAGO IL     PTCLDY    73  68  84 SW7       30.03R
EAU CLAIRE WI  CLOUDY    73  70  90 SW5       29.95R
LA CROSSE WI   MOCLDY    75  70  84 SE9       29.96R
$$

  *****  SOME NATIONAL WEATHER *****

CITY           SKY/WX    TMP DP  RH WIND       PRES   REMARKS
LA GUARDIA NY  PTCLDY    75  66  73 S5        30.02R
RALEIGH NC     PTCLDY    69  67  93 CALM      30.08R FOG
ATLANTA GA     PTCLDY    73  67  81 CALM      30.12R
NEW ORLEANS LA CLOUDY    79  71  76 CALM      30.05R
OKLAHOMA CITY  PTCLDY    68  65  90 S6        30.04R
ALBUQUERQUE NM PTCLDY    67  44  43 SE6       30.19S
SALT LAKE CITY MOCLDY    77  41  27 S16       29.97R
LOS ANGELES CA CLOUDY    69  60  73 SE6       29.95S
BOISE ID       MOCLDY    65  37  35 SE9       29.80R
SEATTLE WA     CLOUDY    57  53  86 S13       29.82R
$$

*** WEATHER ACROSS MANITOBA...SASKATCHEWAN AND ONTARIO ***
                ***ONTARIO***

CITY           SKY/WX    TMP DP  RH WIND       PRES   REMARKS
GERALDTON      PTCLDY    55  54  94 W5        29.96R
THUNDER BAY    PTCLDY    52  50  93 SW6       29.98R
SIOUX LOOKOUT  CLEAR     52  50  93 VRB2      29.94S
TORONTO        PTCLDY    70  64  83 VRB2      30.03S
BIG TROUT LK   CLEAR     52  50  93 E6        29.88R
PICKLE LAKE    PTCLDY    57  52  82 S6        29.93
DRYDEN         CLEAR     63  54  72 SE3       29.93F
KENORA         PTCLDY    63  54  72 S7        29.90S
$$
                *** MANITOBA***

CITY           SKY/WX    TMP DP  RH WIND       PRES   REMARKS
BRANDON        CLEAR     57  54  88 NE2       29.78F
DAUPHIN        CLEAR     57  54  88 W7        29.76S
ISLAND LAKE    PTCLDY    57  55  94 E2        29.80S
PILOT MOUND      N/A     61  59  94 S5          N/A
THE PAS        PTCLDY    63  52  67 N8        29.76R
THOMPSON       NOT AVBL
WINNIPEG       CLEAR     64  59  82 S9        29.80S
LYNN LAKE      CLEAR     48  45  87 NW8       29.76R
CHURCHILL      CLOUDY    48  46  93 SE10G18   29.87S
$$
                ***SASKATCHEWAN***

CITY           SKY/WX    TMP DP  RH WIND       PRES   REMARKS
ESTEVAN        PTCLDY    50  45  81 E7        29.79R
KINDERSLEY     MOCLDY    54  39  58 SE9       29.65F
LLOYDMINSTER   MOCLDY    52  43  71 E14       29.65F
PRINCE ALBERT  PTCLDY    45  43  93 E7        29.76R
REGINA         PTCLDY    50  45  81 SE8       29.76F
YORKTON        CLEAR     50  46  87 CALM      29.78F



USA.gov is the U.S. government's official web portal to all federal, state and local government web resources and services.